GW0719 Weather Reports


Display with metric or nautical units.
time (UTC)temp
F
wind
direction
speed
MPH
gust
MPH
rain 1hr
in
rain 24hr
in
rain mn
in
humidity
%
barometer
mb
20260905182515 68 342 0.0 0.0 0.00 0.01 0.01 10 1021.9
20260905182009 69 28 0.0 1.0 0.00 0.01 0.01 10 1022.0
20260905181504 68 293 0.0 1.0 0.00 0.01 0.01 10 1021.9
20260905181003 69 47 0.0 0.0 0.00 0.01 0.01 10 1021.9
20260905180458 67 40 0.0 0.0 0.00 0.01 0.01 10 1021.7
20260905175953 67 325 0.0 0.0 0.00 0.01 0.01 10 1021.9
20260905175452 67 304 0.0 0.0 0.00 0.01 0.01 10 1021.9
20260905174948 67 331 0.0 0.0 0.00 0.01 0.01 10 1021.9
20260905174443 68 19 0.0 1.0 0.00 0.01 0.01 10 1022.0
20260905173939 67 11 0.0 0.0 0.00 0.01 0.01 10 1021.8
20260905173436 67 343 0.0 1.0 0.00 0.01 0.01 10 1022.1
20260905172931 67 303 0.0 0.0 0.00 0.01 0.01 10 1021.9
20260905172428 66 39 0.0 0.0 0.00 0.01 0.01 10 1021.9
20260905171925 67 355 0.0 0.0 0.00 0.01 0.01 10 1022.0
20260905171421 66 327 0.0 0.0 0.00 0.01 0.01 10 1022.1
20260905170917 65 335 0.0 0.0 0.00 0.01 0.01 10 1022.1
20260905170413 65 317 0.0 1.0 0.00 0.01 0.01 10 1022.1
20260905165912 65 325 0.0 0.0 0.00 0.01 0.01 10 1022.3
20260905165408 65 346 0.0 0.0 0.00 0.01 0.01 10 1022.1
20260905164903 64 356 0.0 0.0 0.00 0.01 0.01 10 1021.8
20260905164357 63 28 0.0 0.0 0.00 0.01 0.01 10 1022.0
20260905163852 64 59 0.0 0.0 0.00 0.01 0.01 10 1021.8
20260905163349 63 37 0.0 0.0 0.00 0.01 0.01 10 1022.2
20260905162845 63 345 0.0 0.0 0.00 0.01 0.01 10 1022.1
20260905162344 63 17 0.0 0.0 0.00 0.01 0.01 10 1022.0
20260905161839 62 10 0.0 0.0 0.00 0.01 0.01 10 1022.1
20260905161338 61 25 0.0 0.0 0.00 0.01 0.01 10 1022.1
20260905160836 61 6 0.0 0.0 0.00 0.01 0.01 10 1022.0
20260905160331 61 25 0.0 0.0 0.00 0.01 0.01 10 1021.7
20260905155825 62 27 0.0 1.0 0.00 0.01 0.01 10 1021.7
20260905155325 60 41 0.0 0.0 0.00 0.01 0.01 10 1021.8
20260905154819 60 44 0.0 0.0 0.00 0.01 0.01 10 1021.9
20260905154315 60 44 0.0 0.0 0.00 0.01 0.01 10 1021.9
20260905153810 60 36 0.0 0.0 0.00 0.01 0.01 10 1021.7
20260905153307 60 38 0.0 0.0 0.00 0.01 0.01 10 1021.8
20260905152806 59 41 0.0 0.0 0.00 0.01 0.01 10 1021.9
20260905152306 59 52 0.0 0.0 0.00 0.01 0.01 10 1021.7
20260905151800 59 50 0.0 0.0 0.00 0.01 0.01 10 1022.1
20260905151256 58 47 0.0 0.0 0.00 0.01 0.01 10 1022.0
20260905150750 58 32 0.0 0.0 0.00 0.01 0.01 10 1021.7
20260905150250 57 27 0.0 0.0 0.00 0.01 0.01 10 1021.9
20260905145747 57 53 0.0 0.0 0.00 0.01 0.01 10 1022.1
20260905145242 57 52 0.0 0.0 0.00 0.01 0.01 10 1022.1
20260905144741 56 26 0.0 0.0 0.00 0.01 0.01 10 1022.0
20260905144237 55 346 0.0 0.0 0.00 0.01 0.01 10 1021.6
20260905143735 55 327 0.0 0.0 0.05 0.01 0.01 10 1021.6
20260905143235 54 340 0.0 0.0 0.05 0.01 0.01 10 1020.9
20260905142733 54 0 0.0 0.0 0.00 0.00 0.00 10 1021.3
20260905142228 54 20 0.0 1.0 0.00 0.00 0.00 10 1021.0
20260905141724 53 329 0.0 1.0 0.00 0.00 0.00 10 1021.4
20260905141220 53 326 0.0 0.0 0.00 0.00 0.00 10 1021.0
20260905140715 53 349 0.0 1.0 0.00 0.00 0.00 10 1021.3
20260905140215 53 312 0.0 2.0 0.00 0.00 0.00 10 1022.1
20260905135709 54 330 0.0 0.0 0.00 0.00 0.00 10 1022.7
20260905135205 54 301 0.0 0.0 0.00 0.00 0.00 10 1022.8
20260905134704 54 281 0.0 1.0 0.00 0.00 0.00 10 1022.4
20260905134204 54 275 0.0 0.0 0.00 0.00 0.00 10 1022.3
20260905133659 53 290 0.0 2.0 0.00 0.00 0.00 10 1022.0
20260905133154 53 289 0.0 2.0 0.00 0.00 0.00 10 1022.0
20260905132653 53 296 0.0 0.0 0.00 0.00 0.00 10 1021.1
20260905132148 53 308 0.0 0.0 0.00 0.00 0.00 10 1020.6
20260905131643 53 329 0.0 0.0 0.00 0.00 0.00 10 1020.5
20260905131138 53 6 0.0 0.0 0.00 0.00 0.00 10 1020.6
20260905130632 52 0 0.0 0.0 0.00 0.00 0.00 10 1020.6
20260905130126 52 347 0.0 0.0 0.00 0.00 0.00 10 1020.6
20260905125621 52 1 0.0 0.0 0.00 0.00 0.00 10 1020.7
20260905125117 53 22 0.0 0.0 0.00 0.00 0.00 10 1020.9
20260905124613 53 251 0.0 0.0 0.00 0.00 0.00 10 1021.0
20260905124109 52 346 0.0 0.0 0.00 0.00 0.00 10 1021.0
20260905123604 53 59 0.0 0.0 0.00 0.00 0.00 10 1021.0
20260905123101 53 58 0.0 0.0 0.00 0.00 0.00 10 1021.1
20260905122601 53 52 0.0 0.0 0.00 0.00 0.00 10 1020.7
20260905122055 53 11 0.0 0.0 0.00 0.00 0.00 10 1020.9
20260905121550 53 306 0.0 0.0 0.00 0.00 0.00 10 1020.9
20260905121045 53 315 0.0 0.0 0.00 0.00 0.00 10 1021.0
20260905120544 53 301 0.0 0.0 0.00 0.00 0.00 10 1020.8
20260905120039 52 340 0.0 1.0 0.00 0.00 0.00 10 1020.8
20260905115538 51 298 0.0 1.0 0.00 0.00 0.00 10 1020.8
20260905115033 51 292 0.0 2.0 0.00 0.00 0.00 10 1020.6
20260905114532 51 294 0.0 1.0 0.00 0.00 0.00 10 1020.5
20260905114032 51 311 0.0 1.0 0.00 0.00 0.00 10 1020.5
20260905113527 52 295 0.0 0.0 0.00 0.00 0.00 10 1020.5
20260905113022 52 310 0.0 0.0 0.00 0.00 0.00 10 1020.0
20260905112517 53 320 0.0 0.0 0.00 0.00 0.00 10 1019.9
20260905112013 53 296 0.0 0.0 0.00 0.00 0.00 10 1019.9
20260905111513 53 290 0.0 0.0 0.00 0.00 0.00 10 1020.3
20260905111007 53 233 0.0 0.0 0.00 0.00 0.00 10 1019.8
20260905110506 53 258 0.0 0.0 0.00 0.00 0.00 10 1019.5
20260905110001 52 297 0.0 0.0 0.00 0.00 0.00 10 1019.7
20260905105455 51 288 0.0 0.0 0.00 0.00 0.00 10 1019.0
20260905104954 50 315 0.0 0.0 0.00 0.00 0.00 10 1019.4
20260905104451 49 288 0.0 0.0 0.00 0.00 0.00 10 1019.5
20260905103945 50 307 0.0 0.0 0.00 0.00 0.00 10 1019.5
20260905103440 50 326 0.0 0.0 0.00 0.00 0.00 10 1019.1
20260905102936 50 327 0.0 0.0 0.00 0.00 0.00 10 1019.6
20260905102432 49 330 0.0 0.0 0.00 0.00 0.00 10 1019.7
20260905101927 48 340 0.0 0.0 0.00 0.00 0.00 10 1019.7
20260905101426 49 324 0.0 0.0 0.00 0.00 0.00 10 1019.6
20260905100921 51 328 0.0 0.0 0.00 0.00 0.00 10 1019.6
20260905100416 51 335 0.0 0.0 0.00 0.00 0.00 10 1019.4
20260905095916 51 321 0.0 0.0 0.00 0.00 0.00 10 1019.6
20260905095411 52 305 0.0 0.0 0.00 0.00 0.00 10 1019.5
20260905094910 52 339 0.0 0.0 0.00 0.00 0.00 10 1019.6
20260905094406 52 313 0.0 0.0 0.00 0.00 0.00 10 1019.4
20260905093905 52 356 0.0 0.0 0.00 0.00 0.00 10 1019.1
20260905093401 52 347 0.0 0.0 0.00 0.00 0.00 10 1019.2
20260905092856 52 36 0.0 0.0 0.00 0.00 0.00 10 1019.1
20260905092356 52 41 0.0 0.0 0.00 0.00 0.00 10 1018.9
20260905091851 52 40 0.0 0.0 0.00 0.00 0.00 10 1019.0
20260905091346 53 22 0.0 0.0 0.00 0.00 0.00 10 1018.9
20260905090845 53 55 0.0 0.0 0.00 0.00 0.00 10 1019.0
20260905090341 53 57 0.0 0.0 0.00 0.00 0.00 10 1018.9
20260905085840 53 56 0.0 0.0 0.00 0.00 0.00 10 1018.7
20260905085339 54 47 0.0 0.0 0.00 0.00 0.00 10 1018.9
20260905084835 55 38 0.0 0.0 0.00 0.00 0.00 10 1018.8
20260905084334 54 44 0.0 0.0 0.00 0.00 0.00 10 1018.5
20260905083829 54 48 0.0 0.0 0.00 0.00 0.00 10 1018.5
20260905083325 53 37 0.0 0.0 0.00 0.00 0.00 10 1018.1
20260905082820 53 48 0.0 0.0 0.00 0.00 0.00 10 1018.4
20260905082317 53 50 0.0 0.0 0.00 0.00 0.00 10 1018.4
20260905081812 53 51 0.0 0.0 0.00 0.00 0.00 10 1018.3
20260905081307 52 35 0.0 0.0 0.00 0.00 0.00 10 1018.5
20260905080805 53 50 0.0 0.0 0.00 0.00 0.00 10 1018.9
20260905080300 54 50 0.0 0.0 0.00 0.00 0.00 10 1019.4
20260905075758 53 3 0.0 0.0 0.00 0.00 0.00 10 1019.0
20260905075253 53 325 0.0 0.0 0.00 0.00 0.00 10 1019.2
20260905074751 53 305 0.0 0.0 0.00 0.00 0.00 10 1019.4
20260905074247 54 308 0.0 1.0 0.00 0.00 0.00 10 1019.5
20260905073737 53 330 0.0 0.0 0.00 0.00 0.00 10 1019.4
20260905073233 54 336 0.0 0.0 0.00 0.00 0.00 10 1019.1
20260905072732 56 2 0.0 0.0 0.00 0.00 0.00 10 1019.5
20260905072227 56 10 0.0 0.0 0.00 0.00 0.00 10 1019.7
20260905071724 56 26 0.0 0.0 0.00 0.00 0.00 10 1019.1
20260905071220 56 20 0.0 0.0 0.00 0.00 0.00 10 1019.0
20260905070714 55 17 0.0 0.0 0.00 0.00 0.00 10 1018.9
20260905070211 54 17 0.0 0.0 0.00 0.00 0.00 10 1018.8
20260905065709 54 51 0.0 0.0 0.00 0.00 0.00 10 1018.7
20260905065203 54 33 0.0 0.0 0.00 0.00 0.00 10 1018.8
20260905064659 53 47 0.0 0.0 0.00 0.00 0.00 10 1018.9
20260905064154 54 46 0.0 0.0 0.00 0.00 0.00 10 1018.9
20260905063653 56 24 0.0 0.0 0.00 0.00 0.00 10 1018.8
20260905063149 57 321 1.0 1.0 0.00 0.00 0.00 10 1018.9
20260905062645 58 324 0.0 1.0 0.00 0.00 0.00 10 1019.1
20260905062144 58 340 0.0 0.0 0.00 0.00 0.00 10 1018.8
20260905061638 56 0 0.0 0.0 0.00 0.00 0.00 10 1018.5
20260905061138 56 338 0.0 0.0 0.00 0.00 0.00 10 1018.6
20260905060634 57 347 0.0 0.0 0.00 0.00 0.00 10 1018.1
20260905060130 57 2 0.0 0.0 0.00 0.00 0.00 10 1018.1
20260905055628 57 17 0.0 0.0 0.00 0.00 0.00 10 1018.4
20260905055124 57 27 0.0 0.0 0.00 0.00 0.00 10 1018.7
20260905054620 57 30 0.0 0.0 0.00 0.00 0.00 10 1018.3
20260905054115 56 353 0.0 0.0 0.00 0.00 0.00 10 1018.1
20260905053615 55 6 0.0 0.0 0.00 0.00 0.00 10 1018.4
20260905053110 56 48 0.0 0.0 0.00 0.00 0.00 10 1018.4
20260905052609 56 40 0.0 0.0 0.00 0.00 0.00 10 1018.4
20260905052104 56 46 0.0 0.0 0.00 0.00 0.00 10 1018.0
20260905051559 58 42 0.0 0.0 0.00 0.00 0.00 10 1018.6
20260905051055 59 36 0.0 0.0 0.00 0.00 0.00 10 1018.6
20260905050546 59 38 0.0 0.0 0.00 0.00 0.00 10 1018.5
20260905050043 59 15 0.0 0.0 0.00 0.00 0.00 10 1018.5
20260905045542 59 8 0.0 0.0 0.00 0.00 0.00 10 1018.5
20260905045033 59 17 0.0 0.0 0.00 0.00 0.00 10 1018.3
20260905044533 59 27 0.0 0.0 0.00 0.00 0.00 10 1018.0
20260905044032 59 42 0.0 0.0 0.00 0.00 0.00 10 1018.0
20260905043531 60 25 0.0 0.0 0.00 0.00 0.00 10 1018.1
20260905043022 60 49 0.0 0.0 0.00 0.00 0.00 10 1018.4
20260905042520 61 53 0.0 0.0 0.00 0.00 0.00 10 1018.9
20260905042016 61 50 0.0 0.0 0.00 0.00 0.00 10 1018.7
20260905041511 61 40 0.0 0.0 0.00 0.00 0.00 10 1018.3
20260905041007 61 30 0.0 0.0 0.00 0.00 0.00 10 1018.3
20260905040506 61 13 0.0 0.0 0.00 0.00 0.00 10 1017.6
20260905040005 62 358 0.0 0.0 0.00 0.00 0.00 10 1017.4
20260905035500 61 6 0.0 0.0 0.00 0.00 0.00 10 1017.3
20260905034958 62 1 0.0 0.0 0.00 0.00 0.00 10 1017.3
20260905034458 61 15 0.0 0.0 0.00 0.00 0.00 10 1017.0
20260905033956 61 33 0.0 0.0 0.00 0.00 0.00 10 1017.2
20260905033451 62 31 0.0 0.0 0.00 0.00 0.00 10 1017.0
20260905032946 62 23 0.0 1.0 0.00 0.00 0.00 10 1017.0
20260905032442 63 38 0.0 2.0 0.00 0.00 0.00 10 1017.3
20260905031936 63 26 0.0 1.0 0.00 0.00 0.00 10 1017.4
20260905031432 63 37 0.0 1.0 0.00 0.00 0.00 10 1017.3
20260905030927 63 359 0.0 0.0 0.00 0.00 0.00 10 1017.0
20260905030423 63 359 0.0 0.0 0.00 0.00 0.00 10 1016.9
20260905025922 63 24 1.0 1.0 0.00 0.00 0.00 10 1016.8
20260905025417 63 16 1.0 2.0 0.00 0.00 0.00 10 1017.0
20260905024914 63 2 0.0 1.0 0.00 0.00 0.00 10 1016.8
20260905024414 63 352 0.0 0.0 0.00 0.00 0.00 10 1016.7
20260905023909 63 24 0.0 1.0 0.00 0.00 0.00 10 1016.4
20260905023405 64 5 0.0 2.0 0.00 0.00 0.00 10 1016.4
20260905022903 63 10 0.0 1.0 0.00 0.00 0.00 10 1016.3
20260905022353 64 23 0.0 1.0 0.00 0.00 0.00 10 1016.3
20260905021848 64 26 0.0 1.0 0.00 0.00 0.00 10 1016.4
20260905021343 64 357 1.0 2.0 0.00 0.00 0.00 10 1016.1
20260905020838 64 351 1.0 2.0 0.00 0.00 0.00 10 1015.5
20260905020332 64 20 1.0 2.0 0.00 0.00 0.00 10 1015.8
20260905015832 64 13 0.0 1.0 0.00 0.00 0.00 10 1015.5
20260905015331 65 18 0.0 0.0 0.00 0.00 0.00 10 1015.3
20260905014825 64 23 1.0 3.0 0.00 0.00 0.00 10 1015.1
20260905014321 64 352 0.0 0.0 0.00 0.00 0.00 10 1015.2
20260905013816 64 36 0.0 1.0 0.00 0.00 0.00 10 1015.3
20260905013312 65 33 0.0 0.0 0.00 0.00 0.00 10 1015.3
20260905012807 65 20 0.0 0.0 0.00 0.00 0.00 10 1014.7
20260905012306 65 72 0.0 0.0 0.00 0.00 0.00 10 1015.0
20260905011759 66 351 0.0 2.0 0.00 0.00 0.00 10 1014.8
20260905011254 66 7 0.0 1.0 0.00 0.00 0.00 10 1014.6
20260905010749 66 12 0.0 1.0 0.00 0.00 0.00 10 1014.7
20260905010244 66 12 2.0 3.0 0.00 0.00 0.00 10 1015.0
20260905005741 66 5 0.0 0.0 0.00 0.00 0.00 10 1015.2
20260905005237 66 0 0.0 0.0 0.00 0.00 0.00 10 1015.1
20260905004736 66 13 0.0 1.0 0.00 0.00 0.00 10 1015.0
20260905004231 67 15 0.0 1.0 0.00 0.00 0.00 10 1015.2
20260905003731 67 344 0.0 0.0 0.00 0.00 0.00 10 1014.8
20260905003227 67 1 0.0 0.0 0.00 0.00 0.00 10 1014.8
20260905002723 67 18 0.0 0.0 0.00 0.00 0.00 10 1014.8
20260905002222 67 11 1.0 1.0 0.00 0.00 0.00 10 1015.0
20260905001723 68 351 1.0 5.0 0.00 0.00 0.00 10 1015.0
20260905001222 68 20 0.0 1.0 0.00 0.00 0.00 10 1015.1
20260905000717 68 20 0.0 0.0 0.00 0.00 0.00 10 1014.8
20260905000213 68 9 0.0 2.0 0.00 0.00 0.00 10 1015.0
20260904235708 69 15 0.0 2.0 0.00 0.00 0.00 10 1015.4
20260904235203 68 10 0.0 3.0 0.00 0.00 0.00 10 1015.3
20260904234657 68 11 2.0 3.0 0.00 0.00 0.00 10 1015.3
20260904234153 68 15 2.0 3.0 0.00 0.00 0.00 10 1015.3
20260904233648 68 358 1.0 2.0 0.00 0.00 0.00 10 1015.2
20260904233144 70 23 0.0 3.0 0.00 0.00 0.00 10 1015.3
20260904232641 70 352 0.0 1.0 0.00 0.00 0.00 10 1015.4
20260904232136 69 358 0.0 5.0 0.00 0.00 0.00 10 1015.1
20260904231632 69 352 1.0 3.0 0.00 0.00 0.00 10 1014.8
20260904231127 70 1 0.0 5.0 0.00 0.00 0.00 10 1014.8
20260904230627 69 12 0.0 3.0 0.00 0.00 0.00 10 1015.2
20260904230122 69 347 2.0 3.0 0.00 0.00 0.00 10 1014.8
20260904225620 69 7 0.0 3.0 0.00 0.00 0.00 10 1014.7
20260904225115 69 348 2.0 3.0 0.00 0.00 0.00 10 1014.8
20260904224609 70 354 2.0 5.0 0.00 0.00 0.00 10 1014.5
20260904224104 71 25 0.0 3.0 0.00 0.00 0.00 10 1014.7
20260904223603 71 20 1.0 2.0 0.00 0.00 0.00 10 1014.2
20260904223059 73 5 1.0 3.0 0.00 0.00 0.00 10 1014.2
20260904222554 73 327 0.0 0.0 0.00 0.00 0.00 10 1014.4
20260904222044 73 311 1.0 3.0 0.00 0.00 0.00 10 1014.2
20260904221538 73 334 0.0 2.0 0.00 0.00 0.00 10 1014.1
20260904221033 73 318 0.0 3.0 0.00 0.00 0.00 10 1014.3
20260904220533 73 315 0.0 2.0 0.00 0.00 0.00 10 1014.1
20260904220029 73 326 0.0 2.0 0.00 0.00 0.00 10 1014.0
20260904215528 73 7 1.0 2.0 0.00 0.00 0.00 10 1014.3
20260904215024 73 328 1.0 1.0 0.00 0.00 0.00 10 1014.1
20260904214519 73 304 0.0 3.0 0.00 0.00 0.00 10 1013.9
20260904214015 74 328 0.0 1.0 0.00 0.00 0.00 10 1013.9
20260904213513 73 27 0.0 2.0 0.00 0.00 0.00 10 1014.0
20260904213010 72 23 0.0 0.0 0.00 0.00 0.00 10 1014.0
20260904212509 72 31 0.0 0.0 0.00 0.00 0.00 10 1013.6
20260904212004 72 50 0.0 0.0 0.00 0.00 0.00 10 1013.6
20260904211458 72 7 0.0 0.0 0.00 0.00 0.00 10 1013.3
20260904210954 71 43 0.0 0.0 0.00 0.00 0.00 10 1013.5
20260904210453 72 37 0.0 0.0 0.00 0.00 0.00 10 1013.2
20260904205949 71 356 0.0 0.0 0.00 0.00 0.00 10 1013.3
20260904205444 71 37 0.0 0.0 0.00 0.00 0.00 10 1013.3
20260904204941 71 1 0.0 0.0 0.00 0.00 0.00 10 1013.2
20260904204437 70 44 0.0 0.0 0.00 0.00 0.00 10 1013.1
20260904203933 70 38 0.0 0.0 0.00 0.00 0.00 10 1013.0
20260904203429 70 22 0.0 1.0 0.00 0.00 0.00 10 1013.3
20260904202925 70 38 0.0 0.0 0.00 0.00 0.00 10 1012.9
20260904202420 71 12 0.0 0.0 0.00 0.00 0.00 10 1013.0
20260904201916 71 18 0.0 0.0 0.00 0.00 0.00 10 1012.7
20260904201411 71 335 0.0 0.0 0.00 0.00 0.00 10 1012.7
20260904200907 72 30 0.0 0.0 0.00 0.00 0.00 10 1013.0
20260904200405 71 43 0.0 0.0 0.00 0.00 0.00 10 1012.9
20260904195900 71 37 0.0 0.0 0.00 0.00 0.00 10 1012.6
20260904195358 70 35 0.0 0.0 0.00 0.00 0.00 10 1012.5
20260904194853 72 40 0.0 0.0 0.00 0.00 0.00 10 1012.2
20260904194352 72 91 0.0 1.0 0.00 0.00 0.00 10 1012.3
20260904193848 72 358 0.0 1.0 0.00 0.00 0.00 10 1012.2
20260904193343 71 54 0.0 0.0 0.00 0.00 0.00 10 1012.2
20260904192838 71 24 0.0 0.0 0.00 0.00 0.00 10 1012.0
20260904192334 71 20 0.0 1.0 0.00 0.00 0.00 10 1012.1
20260904191830 71 47 0.0 0.0 0.00 0.00 0.00 10 1012.0
20260904191327 71 38 0.0 0.0 0.00 0.00 0.00 10 1011.9
20260904190823 71 52 0.0 0.0 0.00 0.00 0.00 10 1011.8
20260904190319 71 54 0.0 0.0 0.00 0.00 0.00 10 1011.8
20260904185814 72 58 0.0 0.0 0.00 0.00 0.00 10 1011.8
20260904185310 71 59 0.0 0.0 0.00 0.00 0.00 10 1011.6
20260904184809 71 37 0.0 0.0 0.00 0.00 0.00 10 1011.9
20260904184304 70 36 0.0 0.0 0.00 0.00 0.00 10 1012.1
20260904183759 69 345 0.0 0.0 0.00 0.00 0.00 10 1011.6
20260904183254 69 38 0.0 0.0 0.00 0.00 0.00 10 1011.9